This demonstration page uses our WeatherBlox Daily Observations layout. Learn more.

Left ArrowRight Arrow

Hourly Observations for October 18, 2016

Temp ( °F °C ) Dew Point ( °F °C ) Humidity (%) Winds ( mph kmh ) Pressure ( in mb ) Visibility ( mi km ) Precip ( " mm )
12:16 am 00:16 Clear 72 22 61 16 69 69 S 15 24 29.71 1006 10 16.0934 N/A
12:37 am 00:37 Clear 72 22 61 16 69 69 SSW 15 24 29.71 1006 10 16.0934 N/A
12:56 am 00:56 Clear 72 22 61 16 69 69 SSW 21 33 29.71 1006 10 16.0934 N/A
1:16 am 01:16 Clear 72 22 61 16 69 69 SSW 18 30 29.71 1006 10 16.0934 N/A
1:37 am 01:37 Clear 72 22 61 16 69 69 SSW 18 30 29.71 1006 10 16.0934 N/A
1:56 am 01:56 Clear 72 22 61 16 69 69 SSW 13 20 29.71 1006 10 16.0934 N/A
2:16 am 02:16 Clear 72 22 61 16 69 69 SSW 14 22 29.71 1006 10 16.0934 N/A
2:37 am 02:37 Clear 70 21 61 16 73 73 SSW 12 19 29.74 1007 10 16.0934 N/A
2:56 am 02:56 Clear 70 21 61 16 73 73 SSW 10 17 29.74 1007 10 16.0934 N/A
3:17 am 03:17 Clear 70 21 61 16 73 73 SSW 10 17 29.74 1007 10 16.0934 N/A
3:37 am 03:37 Clear 70 21 61 16 73 73 S 10 17 29.74 1007 10 16.0934 N/A
3:56 am 03:56 Clear 68 20 61 16 78 78 S 9 15 29.74 1007 10 16.0934 N/A
4:17 am 04:17 Clear 68 20 61 16 78 78 S 9 15 29.74 1007 10 16.0934 N/A
4:36 am 04:36 Clear 68 20 61 16 78 78 S 10 17 29.74 1007 10 16.0934 N/A
4:56 am 04:56 Clear 68 20 61 16 78 78 S 9 15 29.74 1007 10 16.0934 N/A
5:17 am 05:17 Clear 66 19 61 16 83 83 S 9 15 29.71 1006 10 16.0934 N/A
5:36 am 05:36 Clear 66 19 61 16 83 83 S 9 15 29.74 1007 10 16.0934 N/A
5:56 am 05:56 Mostly Cloudy 68 20 61 16 78 78 S 9 15 29.74 1007 10 16.0934 N/A
6:17 am 06:17 Cloudy 68 20 61 16 78 78 S 9 15 29.74 1007 10 16.0934 N/A
6:36 am 06:36 Cloudy 68 20 61 16 78 78 SSW 9 15 29.74 1007 10 16.0934 N/A
6:56 am 06:56 Cloudy 68 20 61 16 78 78 S 9 15 29.74 1007 10 16.0934 N/A
7:17 am 07:17 Mostly Cloudy 68 20 61 16 78 78 SSW 14 22 29.74 1007 10 16.0934 N/A
7:36 am 07:36 Mostly Cloudy 72 22 61 16 69 69 SSW 15 24 29.74 1007 10 16.0934 N/A
7:56 am 07:56 Cloudy 72 22 61 16 69 69 SSW 13 20 29.74 1007 10 16.0934 N/A
8:17 am 08:17 Cloudy 70 21 61 16 73 73 SSW 12 19 29.74 1007 10 16.0934 N/A
8:36 am 08:36 Cloudy 70 21 61 16 73 73 SSW 14 22 29.74 1007 10 16.0934 N/A
8:56 am 08:56 Cloudy 72 22 61 16 69 69 SSW 13 20 29.74 1007 10 16.0934 N/A
9:17 am 09:17 Cloudy 72 22 61 16 69 69 SSW 15 24 29.77 1008 10 16.0934 N/A
9:36 am 09:36 Cloudy 72 22 61 16 69 69 SSW 14 22 29.77 1008 10 16.0934 N/A
9:56 am 09:56 Cloudy 72 22 61 16 69 69 SSW 13 20 29.77 1008 10 16.0934 N/A
10:17 am 10:17 Cloudy 72 22 61 16 69 69 SSW 14 22 29.77 1008 10 16.0934 N/A
10:36 am 10:36 Cloudy 72 22 61 16 69 69 SSW 13 20 29.77 1008 10 16.0934 N/A
10:56 am 10:56 Cloudy 73 23 61 16 65 65 SW 17 28 29.77 1008 10 16.0934 N/A
11:17 am 11:17 Cloudy 73 23 63 17 69 69 SW 13 20 29.77 1008 10 16.0934 N/A
11:36 am 11:36 Cloudy 73 23 63 17 69 69 SW 16 26 29.77 1008 10 16.0934 N/A
11:56 am 11:56 Partly Cloudy 75 24 63 17 65 65 SW 16 26 29.77 1008 10 16.0934 N/A
12:17 pm 12:17 Sunny 77 25 63 17 61 61 SW 21 33 29.77 1008 10 16.0934 N/A
12:36 pm 12:36 Partly Cloudy 77 25 63 17 61 61 SW 21 33 29.77 1008 10 16.0934 N/A
12:56 pm 12:56 Cloudy 75 24 63 17 65 65 SW 14 22 29.77 1008 10 16.0934 N/A
1:17 pm 13:17 Cloudy 75 24 64 18 69 69 SW 14 22 29.77 1008 10 16.0934 N/A
1:36 pm 13:36 Cloudy 75 24 64 18 69 69 SW 12 19 29.77 1008 10 16.0934 N/A
1:56 pm 13:56 Cloudy 75 24 64 18 69 69 SW 13 20 29.77 1008 10 16.0934 N/A
2:17 pm 14:17 Cloudy 75 24 64 18 69 69 SW 15 24 29.77 1008 10 16.0934 N/A
2:36 pm 14:36 Cloudy 75 24 64 18 69 69 SW 13 20 29.77 1008 10 16.0934 N/A
2:56 pm 14:56 Cloudy 75 24 64 18 69 69 SW 15 24 29.77 1008 10 16.0934 N/A
3:17 pm 15:17 Cloudy 75 24 64 18 69 69 SW 13 20 29.77 1008 10 16.0934 N/A
3:36 pm 15:36 Cloudy 75 24 64 18 69 69 SW 14 22 29.77 1008 10 16.0934 N/A
3:57 pm 15:57 Cloudy 75 24 66 19 74 74 SSW 13 20 29.77 1008 10 16.0934 N/A
4:17 pm 16:17 Cloudy 75 24 66 19 74 74 SW 10 17 29.8 1009 10 16.0934 N/A
4:36 pm 16:36 Cloudy 75 24 66 19 74 74 SW 13 20 29.8 1009 10 16.0934 N/A
4:57 pm 16:57 Cloudy 75 24 66 19 74 74 SSW 12 19 29.8 1009 10 16.0934 N/A
5:17 pm 17:17 Cloudy 75 24 66 19 74 74 SSW 13 20 29.8 1009 10 16.0934 N/A
5:36 pm 17:36 Cloudy 75 24 66 19 74 74 SSW 12 19 29.8 1009 10 16.0934 N/A
5:57 pm 17:57 Cloudy 75 24 66 19 74 74 SW 10 17 29.8 1009 10 16.0934 N/A
6:16 pm 18:16 Cloudy 75 24 66 19 74 74 SW 9 15 29.8 1009 10 16.0934 N/A
6:36 pm 18:36 Cloudy 75 24 66 19 74 74 SW 7 11 29.8 1009 10 16.0934 N/A
6:57 pm 18:57 Cloudy 73 23 68 20 83 83 W 8 13 29.83 1010 5 8.0467 N/A
7:16 pm 19:16 Cloudy 70 21 68 20 94 94 W 5 7 29.83 1010 10 16.0934 N/A
7:36 pm 19:36 Cloudy 70 21 68 20 94 94 WSW 3 6 29.83 1010 10 16.0934 N/A
7:57 pm 19:57 Cloudy 70 21 68 20 94 94 W 3 6 29.85 1011 10 16.0934 N/A
8:16 pm 20:16 Mostly Cloudy 70 21 68 20 94 94 N N/A 29.85 1011 10 16.0934 N/A
8:36 pm 20:36 Mostly Cloudy 68 20 68 20 100 100 N N/A 29.85 1011 10 16.0934 N/A
8:57 pm 20:57 Partly Cloudy 68 20 66 19 94 94 SSW 3 6 29.85 1011 10 16.0934 N/A
9:16 pm 21:16 Clear 68 20 66 19 94 94 SSW 5 7 29.85 1011 10 16.0934 N/A
9:36 pm 21:36 Clear 68 20 66 19 94 94 SSW 3 6 29.85 1011 10 16.0934 N/A
9:57 pm 21:57 Clear 68 20 66 19 94 94 SSW 3 6 29.85 1011 10 16.0934 N/A
10:16 pm 22:16 Clear 68 20 66 19 94 94 SSW 3 6 29.85 1011 10 16.0934 N/A
10:36 pm 22:36 Clear 66 19 64 18 94 94 SW 3 6 29.91 1013 10 16.0934 N/A
10:57 pm 22:57 Clear 66 19 64 18 94 94 SW 3 6 29.91 1013 10 16.0934 N/A
11:16 pm 23:16 Clear 68 20 66 19 94 94 SW 5 7 29.88 1012 10 16.0934 N/A
11:37 pm 23:37 Clear 68 20 66 19 94 94 WSW 6 9 29.88 1012 10 16.0934 N/A
11:57 pm 23:57 Clear 68 20 66 19 94 94 WSW 5 7 29.88 1012 10 16.0934 N/A

Powered by AerisWeather